DLH561 EDDF-LFMN

Flight info

Callsign DLH561
Flight time 1h 18m
Altitude 35000
Route ANEKI2L/18 ANEKI Y163 NATOR DCT TRA DCT RIPUS DCT GERSA DCT SOSON DCT ODINA DCT ENOBA/N0394F190 Z185 BORDI
Aircraft A320/M-SDE3FGHIRWY/LB1

Departure

Time 2026-05-01 12:29
Airport Frankfurt Main Airport (EDDF)

Arrival

Time 2026-05-01 13:47
Airport Nice-Côte d'Azur Airport (LFMN)
Time Latitude Longitude Altitude Speed Heading
2026-05-01 11:36 50.04811 8.57188 359 ft 0 kts 115°
2026-05-01 12:13 50.04817 8.57169 365 ft 2 kts 115°
2026-05-01 12:13 50.04824 8.57145 364 ft 2 kts 115°
2026-05-01 12:13 50.04831 8.57121 367 ft 2 kts 115°
2026-05-01 12:13 50.04841 8.57097 365 ft 3 kts 146°
2026-05-01 12:14 50.04857 8.57085 365 ft 3 kts 167°
2026-05-01 12:14 50.04869 8.57082 363 ft 0 kts 193°
2026-05-01 12:17 50.04863 8.57080 363 ft 5 kts 193°
2026-05-01 12:18 50.04813 8.57048 363 ft 8 kts 204°
2026-05-01 12:18 50.04766 8.57015 366 ft 7 kts 204°
2026-05-01 12:18 50.04708 8.56973 365 ft 9 kts 205°
2026-05-01 12:18 50.04656 8.56936 363 ft 8 kts 205°
2026-05-01 12:19 50.04611 8.56911 363 ft 7 kts 191°
2026-05-01 12:19 50.04520 8.56880 363 ft 17 kts 193°
2026-05-01 12:19 50.04450 8.56820 365 ft 10 kts 246°
2026-05-01 12:19 50.04422 8.56705 366 ft 14 kts 250°
2026-05-01 12:20 50.04389 8.56564 365 ft 13 kts 249°
2026-05-01 12:20 50.04356 8.56425 363 ft 16 kts 250°
2026-05-01 12:20 50.04312 8.56245 367 ft 19 kts 249°
2026-05-01 12:20 50.04268 8.56059 368 ft 18 kts 249°
2026-05-01 12:21 50.04227 8.55889 363 ft 16 kts 249°
2026-05-01 12:21 50.04190 8.55734 364 ft 14 kts 250°
2026-05-01 12:21 50.04157 8.55595 367 ft 13 kts 250°
2026-05-01 12:21 50.04124 8.55456 369 ft 16 kts 250°
2026-05-01 12:22 50.04079 8.55268 369 ft 19 kts 249°
2026-05-01 12:22 50.04034 8.55083 365 ft 17 kts 250°
2026-05-01 12:22 50.03994 8.54916 368 ft 16 kts 250°
2026-05-01 12:22 50.03953 8.54744 366 ft 20 kts 249°
2026-05-01 12:23 50.03901 8.54521 365 ft 20 kts 250°
2026-05-01 12:23 50.03857 8.54362 365 ft 14 kts 233°
2026-05-01 12:23 50.03806 8.54243 364 ft 13 kts 245°
2026-05-01 12:23 50.03770 8.54094 365 ft 19 kts 249°
2026-05-01 12:24 50.03726 8.53910 365 ft 19 kts 250°
2026-05-01 12:24 50.03668 8.53668 363 ft 26 kts 249°
2026-05-01 12:24 50.03606 8.53419 370 ft 23 kts 250°
2026-05-01 12:24 50.03556 8.53214 365 ft 18 kts 250°
2026-05-01 12:25 50.03515 8.53037 367 ft 16 kts 250°
2026-05-01 12:25 50.03445 8.52774 368 ft 9 kts 248°
2026-05-01 12:25 50.03433 8.52724 368 ft 0 kts 250°
2026-05-01 12:27 50.03389 8.52608 367 ft 9 kts 215°
2026-05-01 12:28 50.03342 8.52595 366 ft 0 kts 178°
2026-05-01 12:28 50.03028 8.52597 367 ft 82 kts 180°
2026-05-01 12:29 50.02267 8.52604 368 ft 137 kts 180°
2026-05-01 12:29 50.01158 8.52634 466 ft 173 kts 177°
2026-05-01 12:29 49.98777 8.52696 1968 ft 179 kts 172°
2026-05-01 12:30 49.96037 8.52920 2642 ft 219 kts 174°
2026-05-01 12:30 49.94484 8.53042 3376 ft 224 kts 174°
2026-05-01 12:30 49.92903 8.53156 3911 ft 226 kts 175°
2026-05-01 12:31 49.91326 8.53265 4585 ft 226 kts 175°
2026-05-01 12:31 49.89782 8.53367 5572 ft 224 kts 175°
2026-05-01 12:31 49.88212 8.53471 6465 ft 227 kts 176°
2026-05-01 12:31 49.86610 8.53578 7218 ft 232 kts 176°
2026-05-01 12:32 49.85002 8.53685 8000 ft 235 kts 176°
2026-05-01 12:32 49.81692 8.53909 9543 ft 241 kts 175°
2026-05-01 12:32 49.79999 8.54029 10346 ft 245 kts 175°
2026-05-01 12:33 49.78286 8.54139 11066 ft 249 kts 178°
2026-05-01 12:33 49.76487 8.53964 11467 ft 270 kts 182°
2026-05-01 12:33 49.74529 8.53711 11719 ft 293 kts 182°
2026-05-01 12:33 49.72447 8.53431 11921 ft 316 kts 183°
2026-05-01 12:34 49.70145 8.53120 12092 ft 339 kts 183°
2026-05-01 12:34 49.67745 8.52795 12318 ft 358 kts 183°
2026-05-01 12:34 49.65223 8.52456 12910 ft 365 kts 183°
2026-05-01 12:34 49.62666 8.52113 13559 ft 370 kts 182°
2026-05-01 12:35 49.60082 8.51771 14184 ft 375 kts 182°
2026-05-01 12:35 49.57493 8.51432 14771 ft 379 kts 182°
2026-05-01 12:35 49.54845 8.51082 15366 ft 383 kts 182°
2026-05-01 12:35 49.52169 8.50725 15958 ft 386 kts 183°
2026-05-01 12:36 49.49481 8.50365 16550 ft 389 kts 183°
2026-05-01 12:36 49.46800 8.50010 17128 ft 392 kts 183°
2026-05-01 12:36 49.44073 8.49653 17702 ft 395 kts 183°
2026-05-01 12:36 49.41318 8.49291 18267 ft 398 kts 183°
2026-05-01 12:37 49.38542 8.48926 18796 ft 401 kts 183°
2026-05-01 12:37 49.35752 8.48557 19274 ft 404 kts 183°
2026-05-01 12:37 49.32937 8.48187 19739 ft 407 kts 183°
2026-05-01 12:37 49.30136 8.47827 20198 ft 410 kts 183°
2026-05-01 12:38 49.27280 8.47463 20655 ft 413 kts 183°
2026-05-01 12:38 49.24400 8.47097 21103 ft 416 kts 183°
2026-05-01 12:38 49.21497 8.46726 21549 ft 419 kts 183°
2026-05-01 12:38 49.18609 8.46350 21984 ft 423 kts 183°
2026-05-01 12:39 49.15652 8.45965 22395 ft 426 kts 183°
2026-05-01 12:39 49.12682 8.45580 22817 ft 429 kts 183°
2026-05-01 12:39 49.09718 8.45197 23215 ft 432 kts 183°
2026-05-01 12:39 49.06706 8.44767 23590 ft 436 kts 186°
2026-05-01 12:40 49.03695 8.43831 23931 ft 441 kts 192°
2026-05-01 12:40 49.00725 8.42780 24239 ft 444 kts 192°
2026-05-01 12:40 48.97707 8.41725 24582 ft 446 kts 192°
2026-05-01 12:40 48.94661 8.40668 24915 ft 448 kts 192°
2026-05-01 12:41 48.91605 8.39609 25250 ft 451 kts 192°
2026-05-01 12:41 48.88535 8.38547 25578 ft 453 kts 192°
2026-05-01 12:41 48.85443 8.37478 25910 ft 455 kts 192°
2026-05-01 12:41 48.82343 8.36407 26219 ft 457 kts 192°
2026-05-01 12:42 48.79270 8.35344 26535 ft 459 kts 192°
2026-05-01 12:42 48.76144 8.34248 26831 ft 461 kts 192°
2026-05-01 12:42 48.73003 8.33114 27133 ft 463 kts 193°
2026-05-01 12:42 48.69861 8.31959 27424 ft 465 kts 193°
2026-05-01 12:43 48.66739 8.30800 27709 ft 467 kts 193°
2026-05-01 12:43 48.63571 8.29627 27979 ft 469 kts 193°
2026-05-01 12:43 48.60382 8.28454 28254 ft 471 kts 193°
2026-05-01 12:43 48.57180 8.27285 28552 ft 473 kts 193°
2026-05-01 12:44 48.53985 8.26124 28955 ft 472 kts 193°
2026-05-01 12:44 48.50755 8.25211 29346 ft 471 kts 186°
2026-05-01 12:44 48.44277 8.25513 30129 ft 468 kts 170°
2026-05-01 12:45 48.37877 8.27069 30829 ft 466 kts 170°
2026-05-01 12:45 48.34671 8.27854 31174 ft 465 kts 170°
2026-05-01 12:45 48.31469 8.28638 31525 ft 464 kts 170°
2026-05-01 12:46 48.28284 8.29415 31869 ft 463 kts 170°
2026-05-01 12:46 48.25098 8.30184 32214 ft 462 kts 170°
2026-05-01 12:46 48.21958 8.30935 32559 ft 461 kts 170°
2026-05-01 12:46 48.18775 8.31698 32904 ft 460 kts 170°
2026-05-01 12:47 48.15604 8.32461 33240 ft 459 kts 170°
2026-05-01 12:47 48.12488 8.33215 33568 ft 458 kts 170°
2026-05-01 12:47 48.09312 8.33983 33918 ft 458 kts 170°
2026-05-01 12:47 48.06169 8.34746 34261 ft 456 kts 170°
2026-05-01 12:48 48.03071 8.35497 34555 ft 456 kts 170°
2026-05-01 12:48 47.99929 8.36259 34837 ft 455 kts 170°
2026-05-01 12:48 47.96801 8.37017 35108 ft 454 kts 170°
2026-05-01 12:48 47.93674 8.37773 35263 ft 455 kts 170°
2026-05-01 12:49 47.87415 8.39286 35297 ft 458 kts 170°
2026-05-01 12:49 47.81097 8.40790 35299 ft 459 kts 170°
2026-05-01 12:50 47.74780 8.42301 35301 ft 459 kts 170°
2026-05-01 12:50 47.68487 8.43801 35300 ft 459 kts 171°
2026-05-01 12:51 47.62151 8.44920 35310 ft 459 kts 174°
2026-05-01 12:52 47.52571 8.46138 35323 ft 459 kts 174°
2026-05-01 12:52 47.43030 8.47478 35333 ft 460 kts 174°
2026-05-01 12:53 47.33508 8.48911 35323 ft 460 kts 174°
2026-05-01 12:54 47.27126 8.49853 35316 ft 460 kts 174°
2026-05-01 12:54 47.17587 8.51229 35301 ft 460 kts 174°
2026-05-01 12:55 47.08024 8.52610 35299 ft 460 kts 174°
2026-05-01 12:56 47.01653 8.53538 35296 ft 460 kts 174°
2026-05-01 12:56 46.95305 8.54464 35293 ft 461 kts 174°
2026-05-01 12:57 46.88903 8.55382 35293 ft 462 kts 174°
2026-05-01 12:57 46.80371 8.56603 35295 ft 462 kts 174°
2026-05-01 12:58 46.73967 8.57530 35305 ft 462 kts 174°
2026-05-01 12:59 46.64415 8.58898 35323 ft 461 kts 174°
2026-05-01 12:59 46.54807 8.60250 35341 ft 461 kts 174°
2026-05-01 13:00 46.47737 8.61245 35338 ft 460 kts 174°
2026-05-01 13:01 46.38322 8.62633 35372 ft 453 kts 174°
2026-05-01 13:02 46.28763 8.63930 35373 ft 461 kts 174°
2026-05-01 13:07 45.65901 8.57431 35371 ft 463 kts 188°
2026-05-01 13:07 45.62733 8.56792 35372 ft 464 kts 188°
2026-05-01 13:08 45.56341 8.55503 35372 ft 464 kts 188°
2026-05-01 13:08 45.49942 8.54210 35370 ft 464 kts 188°
2026-05-01 13:09 45.43578 8.52937 35326 ft 464 kts 188°
2026-05-01 13:09 45.37170 8.51656 35318 ft 464 kts 188°
2026-05-01 13:10 45.30752 8.50383 35318 ft 465 kts 188°
2026-05-01 13:10 45.24373 8.49108 35329 ft 465 kts 188°
2026-05-01 13:11 45.17947 8.47824 35338 ft 465 kts 188°
2026-05-01 13:11 45.11558 8.46569 35347 ft 465 kts 188°
2026-05-01 13:12 45.05136 8.45302 35363 ft 465 kts 189°
2026-05-01 13:12 44.98712 8.44028 35360 ft 465 kts 189°
2026-05-01 13:13 44.92326 8.42759 35354 ft 466 kts 189°
2026-05-01 13:13 44.85888 8.41495 35353 ft 466 kts 188°
2026-05-01 13:14 44.79478 8.40253 35352 ft 466 kts 189°
2026-05-01 13:14 44.73028 8.38986 35343 ft 467 kts 189°
2026-05-01 13:15 44.66619 8.37732 35340 ft 467 kts 189°
2026-05-01 13:15 44.60192 8.36487 35337 ft 467 kts 189°
2026-05-01 13:16 44.53726 8.35236 35331 ft 468 kts 189°
2026-05-01 13:16 44.47300 8.33984 35332 ft 468 kts 189°
2026-05-01 13:17 44.34519 8.30880 35337 ft 462 kts 202°
2026-05-01 13:18 44.29000 8.26539 35323 ft 456 kts 221°
2026-05-01 13:18 44.26659 8.23534 34802 ft 461 kts 230°
2026-05-01 13:18 44.24680 8.20026 34039 ft 459 kts 238°
2026-05-01 13:18 44.22879 8.16350 33229 ft 459 kts 238°
2026-05-01 13:19 44.21095 8.12721 32449 ft 460 kts 238°
2026-05-01 13:19 44.19273 8.09043 31693 ft 462 kts 237°
2026-05-01 13:19 44.15578 8.01645 30166 ft 466 kts 237°
2026-05-01 13:20 44.13715 7.97924 29321 ft 470 kts 237°
2026-05-01 13:20 44.11840 7.94174 28495 ft 473 kts 237°
2026-05-01 13:20 44.09956 7.90409 27706 ft 476 kts 237°
2026-05-01 13:21 44.06155 7.82851 26185 ft 481 kts 236°
2026-05-01 13:21 44.04239 7.79044 25457 ft 478 kts 236°
2026-05-01 13:21 44.02331 7.75251 24737 ft 474 kts 236°
2026-05-01 13:21 44.00447 7.71509 24050 ft 471 kts 236°
2026-05-01 13:22 43.98575 7.67792 23259 ft 467 kts 235°
2026-05-01 13:22 43.96740 7.64150 22475 ft 464 kts 235°
2026-05-01 13:22 43.94892 7.60489 21683 ft 461 kts 235°
2026-05-01 13:22 43.93049 7.56846 20924 ft 458 kts 235°
2026-05-01 13:23 43.91218 7.53231 20181 ft 456 kts 234°
2026-05-01 13:23 43.89392 7.49629 19444 ft 454 kts 234°
2026-05-01 13:23 43.87410 7.46284 18737 ft 450 kts 221°
2026-05-01 13:23 43.84803 7.43968 17953 ft 444 kts 201°
2026-05-01 13:24 43.81864 7.43052 17305 ft 434 kts 180°
2026-05-01 13:24 43.78923 7.43550 16998 ft 418 kts 161°
2026-05-01 13:24 43.76325 7.45237 16744 ft 409 kts 143°
2026-05-01 13:25 43.71904 7.50071 16248 ft 406 kts 139°
2026-05-01 13:25 43.69771 7.52644 15997 ft 403 kts 132°
2026-05-01 13:25 43.68051 7.55638 15751 ft 400 kts 121°
2026-05-01 13:25 43.66786 7.59041 15503 ft 397 kts 109°
2026-05-01 13:26 43.65857 7.62637 15264 ft 395 kts 108°
2026-05-01 13:26 43.64942 7.66222 15019 ft 394 kts 108°
2026-05-01 13:26 43.64037 7.69746 14781 ft 393 kts 108°
2026-05-01 13:26 43.63117 7.73309 14542 ft 392 kts 108°
2026-05-01 13:27 43.62200 7.76849 14303 ft 389 kts 108°
2026-05-01 13:27 43.61305 7.80308 14063 ft 377 kts 108°
2026-05-01 13:27 43.59644 7.86716 13520 ft 333 kts 107°
2026-05-01 13:28 43.58175 7.92401 13011 ft 300 kts 107°
2026-05-01 13:28 43.57486 7.95061 12751 ft 295 kts 107°
2026-05-01 13:29 43.56104 8.00384 12246 ft 293 kts 107°
2026-05-01 13:29 43.54535 8.05559 11736 ft 296 kts 124°
2026-05-01 13:30 43.47145 8.05940 10765 ft 308 kts 221°
2026-05-01 13:31 43.43917 8.02025 10287 ft 313 kts 226°
2026-05-01 13:31 43.39705 7.95959 9493 ft 272 kts 229°
2026-05-01 13:32 43.38464 7.91471 9181 ft 252 kts 276°
2026-05-01 13:33 43.40470 7.85084 8718 ft 245 kts 295°
2026-05-01 13:33 43.41063 7.80210 8424 ft 264 kts 274°
2026-05-01 13:34 43.41093 7.76175 8171 ft 252 kts 273°
2026-05-01 13:34 43.41103 7.71487 7825 ft 241 kts 274°
2026-05-01 13:35 43.41105 7.66933 7490 ft 236 kts 273°
2026-05-01 13:35 43.41105 7.64679 7319 ft 235 kts 274°
2026-05-01 13:35 43.41098 7.60197 6977 ft 233 kts 274°
2026-05-01 13:36 43.41092 7.57989 6812 ft 233 kts 273°
2026-05-01 13:36 43.41087 7.55759 6638 ft 232 kts 273°
2026-05-01 13:36 43.41076 7.51312 6277 ft 232 kts 273°
2026-05-01 13:37 43.41073 7.49102 6101 ft 231 kts 273°
2026-05-01 13:37 43.41072 7.46916 5929 ft 230 kts 273°
2026-05-01 13:37 43.41072 7.44704 5739 ft 231 kts 273°
2026-05-01 13:37 43.41075 7.42490 5487 ft 231 kts 273°
2026-05-01 13:38 43.41086 7.38107 4989 ft 230 kts 273°
2026-05-01 13:38 43.41101 7.35896 4731 ft 230 kts 273°
2026-05-01 13:38 43.41117 7.33694 4474 ft 230 kts 273°
2026-05-01 13:39 43.41128 7.31482 4220 ft 231 kts 273°
2026-05-01 13:39 43.41145 7.29302 3973 ft 231 kts 274°
2026-05-01 13:39 43.41163 7.27078 3724 ft 232 kts 273°
2026-05-01 13:39 43.41178 7.24870 3460 ft 228 kts 273°
2026-05-01 13:40 43.41194 7.22717 3207 ft 223 kts 274°
2026-05-01 13:40 43.41205 7.20633 3049 ft 208 kts 275°
2026-05-01 13:40 43.41497 7.18846 2989 ft 183 kts 302°
2026-05-01 13:40 43.42208 7.17545 3005 ft 159 kts 328°
2026-05-01 13:41 43.43112 7.16815 3000 ft 145 kts 350°
2026-05-01 13:41 43.44070 7.16578 3013 ft 138 kts
2026-05-01 13:41 43.45029 7.16488 3006 ft 140 kts
2026-05-01 13:41 43.46012 7.16391 3001 ft 141 kts
2026-05-01 13:42 43.46970 7.16292 2967 ft 136 kts
2026-05-01 13:42 43.47932 7.16197 2996 ft 139 kts
2026-05-01 13:42 43.48887 7.16103 3003 ft 139 kts
2026-05-01 13:42 43.49858 7.16004 3003 ft 139 kts
2026-05-01 13:43 43.50828 7.15904 2979 ft 137 kts
2026-05-01 13:43 43.51772 7.15808 2634 ft 140 kts
2026-05-01 13:43 43.52744 7.15716 2315 ft 139 kts
2026-05-01 13:43 43.53381 7.15657 2106 ft 140 kts
2026-05-01 13:44 43.54347 7.15561 2021 ft 140 kts
2026-05-01 13:44 43.55326 7.15468 2026 ft 142 kts
2026-05-01 13:44 43.56321 7.15375 2028 ft 144 kts
2026-05-01 13:44 43.57315 7.15281 2007 ft 142 kts
2026-05-01 13:45 43.58313 7.15203 1837 ft 143 kts
2026-05-01 13:45 43.59293 7.15205 1693 ft 142 kts
2026-05-01 13:45 43.60260 7.15425 1598 ft 142 kts 19°
2026-05-01 13:45 43.61192 7.15841 1435 ft 141 kts 27°
2026-05-01 13:46 43.62078 7.16458 1303 ft 141 kts 33°
2026-05-01 13:46 43.62893 7.17219 1085 ft 140 kts 44°
2026-05-01 13:46 43.63576 7.18150 858 ft 139 kts 50°
2026-05-01 13:46 43.64243 7.19124 590 ft 139 kts 47°
2026-05-01 13:47 43.64941 7.20065 236 ft 142 kts 50°
2026-05-01 13:47 43.65616 7.21010 29 ft 129 kts 49°
2026-05-01 13:47 43.66138 7.21727 20 ft 81 kts 46°
2026-05-01 13:47 43.66398 7.22078 21 ft 22 kts 43°
2026-05-01 13:48 43.66447 7.22125 23 ft 9 kts 16°
2026-05-01 13:48 43.66488 7.22105 19 ft 0 kts 315°
2026-05-01 13:48 43.66488 7.22104 19 ft 1 kts 315°
2026-05-01 13:48 43.66501 7.22089 19 ft 8 kts 317°
2026-05-01 13:49 43.66554 7.22015 18 ft 11 kts 296°
2026-05-01 13:49 43.66539 7.21934 18 ft 7 kts 251°
2026-05-01 13:49 43.66506 7.21899 19 ft 5 kts 213°
2026-05-01 13:49 43.66472 7.21857 20 ft 11 kts 225°
2026-05-01 13:50 43.66420 7.21784 20 ft 10 kts 224°
2026-05-01 13:50 43.66365 7.21713 18 ft 11 kts 223°
2026-05-01 13:50 43.66320 7.21646 17 ft 8 kts 239°
2026-05-01 13:50 43.66334 7.21593 20 ft 5 kts 309°
2026-05-01 13:51 43.66352 7.21566 18 ft 3 kts 312°
2026-05-01 13:51 43.66368 7.21541 18 ft 7 kts 313°
2026-05-01 13:51 43.66373 7.21490 18 ft 5 kts 254°
2026-05-01 13:51 43.66366 7.21446 18 ft 4 kts 257°
2026-05-01 13:52 43.66361 7.21409 18 ft 3 kts 269°
2026-05-01 13:52 43.66374 7.21398 19 ft 4 kts 337°
2026-05-01 13:52 43.66396 7.21394 20 ft 3 kts 354°
2026-05-01 13:52 43.66415 7.21392 19 ft 1 kts 356°
2026-05-01 13:53 43.66427 7.21392 19 ft 5 kts 357°
2026-05-01 13:53 43.66430 7.21391 20 ft 0 kts 357°